Regional Weather Roundup
Issued by NWS Charleston, SC

Current Version | Previous Version | Graphics & Text | Print | Product List | Glossary On
Versions: 1 2 3 4 5 6 7 8 9 10 11 12 13 14 15 16 17 18 19 20 21 22 23 24 25 26 27 28 29 30 31 32 33 34 35 36 37 38 39 40 41 42 43 44 45 46 47 48 49 50
000
ASUS42 KCHS 251612
RWRCHS

REGIONAL WEATHER ROUNDUP
NATIONAL WEATHER SERVICE CHARLESTON SC
1200 PM EDT SAT APR 25 2015

NOTE: "FAIR" INDICATES FEW OR NO CLOUDS BELOW 12,000 FEET WITH NO
SIGNIFICANT WEATHER AND/OR OBSTRUCTIONS TO VISIBILITY.

NOT ALL STATIONS ARE QUALITY CONTROLLED BY THE NATIONAL
WEATHER SERVICE. USE DATA WITH CAUTION...ESPECIALLY
DEWPOINT OBSERVATIONS.

SCZ027-030-031-034>040-042>050-251700-
...SOUTHEAST SOUTH CAROLINA...

CITY           SKY/WX    TMP DP  RH WIND       PRES   REMARKS
N CHARLESTON   LGT RAIN  67  64  90 S12       29.90F FOG
WATERFRONT PRK   N/A     70 N/A N/A S10         N/A
MOUNT PLEASANT LGT RAIN  68  66  94 MISG      29.93F
PINOPOLIS      NOT AVBL
MONCKS CORNER  LGT RAIN  66  63  88 S8        29.83F
SUMMERVILLE    LGT RAIN  64  64 100 SE10G16   29.86F
BEAUFORT MCAS  HVY RAIN  67  66  97 S3        29.94S VSB 3/4
BEAUFORT ARPT  TSTM      68  68 100 CALM      29.95R
HILTON HEAD IS HVY RAIN  68  66  94 CALM      29.96R VSB 1
WALTERBORO     RAIN      63  63 100 S16G22    29.83F
ALLENDALE      CLOUDY    66  64  94 S13       29.81F

...SOUTHERN MIDLANDS AND PEE DEE...

CITY           SKY/WX    TMP DP  RH WIND       PRES   REMARKS
GEORGETOWN     NOT AVBL
KINGSTREE      NOT AVBL
ORANGEBURG     CLOUDY    66  62  87 S8        29.85F
BARNWELL       CLOUDY    64  64 100 SE9       29.82F
AIKEN          CLOUDY    61  59  94 SE10      29.85F
MANNING        FAIR      63  57  82 SE7       29.87F
COLUMBIA       CLOUDY    67  62  84 S10       29.83F
SUMTER         CLOUDY    65  62  88 S10       29.83F
FLORENCE       LGT RAIN  59  55  87 S9        29.87F
MYRTLE BEACH   LGT RAIN  63  54  72 W6        29.94F
N MYRTLE BEACH LGT RAIN  62  54  74 CALM      29.92F

$$

GAZ063-065-086>088-099>101-113>116-118-119-134>141-150-251700-
...SOUTHEAST GEORGIA...

CITY           SKY/WX    TMP DP  RH WIND       PRES   REMARKS
SAVANNAH ARPT  TSTM      68  65  90 VRB7      29.90F VSB 1/2
HUNTER AAF     TSTM      68  68 100 E5G21     29.88F VSB 3/4
FORT STEWART   HVY RAIN  68  66  94 NW12G40   29.89R VSB 1/2
STATESBORO       N/A     64  64 100 S14       29.81F
SYLVANIA       TSTM      65  65 100 S7G17     29.82F
CLAXTON        RAIN      64  64 100 SE7       29.85F

...CSRA...CENTRAL AND FAR SOUTHEAST GEORGIA...

CITY           SKY/WX    TMP DP  RH WIND       PRES   REMARKS
THOMSON        CLOUDY    65  64  97 CALM      29.84F
AUGUSTA-BUSH   CLOUDY    64  62  93 SE5       29.81F
AUGUSTA-DANIEL CLOUDY    62  60  93 SE5       29.82F FOG
SWAINSBORO     NOT AVBL
VIDALIA        LGT RAIN  64  64 100 S9        29.85F
EASTMAN        CLOUDY    66  66 100 S6        29.86F
HAZLEHURST     LGT RAIN  68  68 100 CALM      29.85F
ALMA           CLOUDY    72  68  87 SW10      29.86F
WAYCROSS       LGT RAIN  74  72  94 SW12      29.86F
JESUP          LGT RAIN  72  70  94 SW7       29.88R
BAXLEY         CLOUDY    72  68  88 N9        29.88R
BRUNSWICK      CLOUDY    73  68  83 SW9       29.88F
SAINT SIMONS   CLOUDY    72  69  90 S7        29.88F

$$

SCZ027-028-034-036>038-045-046-048>050-GAZ119-141-251700-
...LAKE AND SUPPLEMENTAL COASTAL OBSERVATIONS...

STATION/POSITION TIME  TEMP    WIND        PRES    WAVE   SWELL
                       AIR SEA DIR/SP/G            HT/PER HT/PER/DIR
                 (UTC) (F)     (DEG/KT/KT) (MB)    (FT/S) (FT/S/D)
UPR LAKE MARION  NOT AVBL
WINYAH BAY       NOT AVBL
LAKE MURRAY      1500   61     160/ 11/ 16 1010.8F
ACE BASIN NERRS  NOT AVBL
FORT PULASKI     1500   70 70  140/  7/ 10 1012.6F
SAPELO ISLAND    NOT AVBL

$$

ANZ835-935-AMZ111-154-330-350-352-354-370-450-454-472-251700-
...C-MAN AND BUOY OBSERVATIONS...

STATION/POSITION TIME  TEMP    WIND        PRES    WAVE   SWELL
                       AIR SEA DIR/SP/G            HT/PER HT/PER/DIR
                 (UTC) (F)     (DEG/KT/KT) (MB)    (FT/S) (FT/S/D)
BUOY 41004       1550   72 72  170/ 12/ 14 1013.2F   3/ 7   2/ 7
BUOY 41008       1550   70 69  170/ 12/ 14 1012.1F   2/ 8   2/ 80/ 8
FOLLY BEACH CMAN 1600   68     170/  9/ 11 1013.5F
CAPERS NEARSHORE 1508   69     180/  8/ 10   N/A
FRIPP NEARSHORE  1500   69     140/  4/  8 1013.1R


STATION/POSITION TIME  TEMP    WIND        PRES    WAVE   SWELL
                       AIR SEA DIR/SP/G            HT/PER HT/PER/DIR
                 (UTC) (F)     (DEG/KT/KT) (MB)    (FT/S) (FT/S/D)
5E ST. MARYS GA  1521      70                N/A     3/13   2/ 90/13
FRYING PAN BUOY  1550   69 71  220/ 16/ 17 1014.5R   4/ 8   2/ 70/ 8
BUOY 41025       1550   63 73  320/ 12/ 14 1013.4F   3/ 8   2/ 70/ 8
CAPE LOOKOUT NC  1600   66     240/  5/  8 1012.9F
BUOY 41002       1550   66 71  180/ 12/ 14 1015.6F   5/ 9   5/ 10/ 9
BUOY 41010       1520   77 79  170/ 12/ 14 1014.6F
ST AUGUSTINE FL  1600   79 70  200/ 11/ 14 1013.8F


$$



USA.gov is the U.S. government's official web portal to all federal, state and local government web resources and services.